Angel Fire, NM

4:30 PM MDT on May 28, 2017 (GMT -0600)
Angel Fire

Weather History for KAXX - September, 2014

Change the Weather History Date:

Wednesday, September 3, 2014

  Actual Average (KSKX) Record (KSKX)
Temperature  
Mean Temperature 56 °F -  
Max Temperature 78 °F 77 °F 86 °F (2012)
Min Temperature 34 °F 44 °F 42 °F (2001)
Degree Days  
Heating Degree Days 9    
Growing Degree Days 6 (Base 50)    
Moisture  
Dew Point 33 °F    
Average Humidity 50    
Maximum Humidity 89    
Minimum Humidity 14    
Precipitation  
Precipitation 0.00 in - - ()
Sea Level Pressure  
Sea Level Pressure 30.27 in    
Wind  
Wind Speed 3 mph (WSW)    
Max Wind Speed 22 mph    
Max Gust Speed 26 mph    
Visibility 10 miles    
Events      
Averages and records for this station are not official NWS values.
T = Trace of Precipitation, MM = Missing Value Source: NWS Daily Summary

Daily Weather History Graph

Daily Weather History Graph

Search for Another Location

Airport or City:

Trip Planner

Search our weather history database for the weather conditions in past years. The results will help you decide how hot, cold, wet, or windy it might be!

Date:

Astronomy

Sep. 03, 2014 Rise Set
Actual Time 6:34 AM MDT 7:26 PM MDT
Civil Twilight 6:07 AM MDT 7:52 PM MDT
Nautical Twilight 5:36 AM MDT 8:23 PM MDT
Astronomical Twilight 5:04 AM MDT 8:55 PM MDT
Moon 3:05 PM MDT (9/3) 12:35 AM MDT (9/3)
Length of Visible Light 13h 44m
Length of Day
12h 51m
Waxing Gibbous, 64% of the Moon is Illuminated
Sep 3
Waxing Gibbous
Sep 8
Full
Sep 15
Last Quarter
Sep 24
New
Oct 1
First Quarter

Hourly Weather History & Observations

Time (MDT) Temp. Windchill Dew Point Humidity Pressure Visibility Wind Dir Wind Speed Gust Speed Precip Events Conditions
12:15 AM 46.6 °F - 36.9 °F 69% 30.31 in 10.0 mi Calm Calm - N/A   Clear
12:35 AM 41.4 °F - 35.2 °F 79% 30.31 in 10.0 mi Calm Calm - N/A   Clear
12:55 AM 43.2 °F - 35.8 °F 75% 30.31 in 10.0 mi Calm Calm - N/A   Clear
1:15 AM 43.9 °F - 36.3 °F 75% 30.31 in 10.0 mi Calm Calm - N/A   Clear
1:35 AM 38.8 °F - 34.3 °F 84% 30.31 in 10.0 mi Calm Calm - N/A   Clear
1:55 AM 40.1 °F - 34.9 °F 82% 30.31 in 10.0 mi Calm Calm - N/A   Scattered Clouds
2:15 AM 42.4 °F - 36.9 °F 81% 30.30 in 10.0 mi Calm Calm - N/A   Scattered Clouds
2:35 AM 38.8 °F - 35.2 °F 87% 30.30 in 10.0 mi Calm Calm - N/A   Mostly Cloudy
2:55 AM 42.8 °F - 37.2 °F 81% 30.30 in 10.0 mi Calm Calm - N/A   Mostly Cloudy
3:15 AM 39.6 °F - 35.4 °F 85% 30.30 in 10.0 mi Calm Calm - N/A   Scattered Clouds
3:35 AM 40.1 °F - 36.0 °F 85% 30.30 in 10.0 mi Calm Calm - N/A   Scattered Clouds
3:55 AM 39.6 °F - 35.4 °F 85% 30.30 in 10.0 mi Calm Calm - N/A   Clear
4:15 AM 39.0 °F 36.8 °F 34.5 °F 84% 30.30 in 10.0 mi SE 3.5 mph - N/A   Clear
4:35 AM 35.6 °F - 32.0 °F 87% 30.30 in 10.0 mi Calm Calm - N/A   Clear
4:55 AM 39.0 °F - 34.9 °F 85% 30.30 in 10.0 mi Calm Calm - N/A   Clear
5:15 AM 34.9 °F - 32.0 °F 89% 30.30 in 10.0 mi Calm Calm - N/A   Clear
5:35 AM 36.7 °F - 32.7 °F 86% 30.30 in 10.0 mi Calm Calm - N/A   Clear
5:55 AM 36.1 °F 31.4 °F 33.3 °F 89% 30.31 in 10.0 mi SSE 5.8 mph - N/A   Clear
6:15 AM 37.0 °F - 34.0 °F 89% 30.31 in 10.0 mi Calm Calm - N/A   Clear
6:35 AM 37.8 °F 34.2 °F 33.8 °F 86% 30.30 in 10.0 mi ENE 4.6 mph - N/A   Clear
6:55 AM 35.6 °F - 32.7 °F 89% 30.31 in 10.0 mi Calm Calm - N/A   Clear
7:15 AM 38.5 °F - 34.7 °F 86% 30.32 in 10.0 mi Calm Calm - N/A   Clear
7:35 AM 40.6 °F - 36.7 °F 86% 30.33 in 10.0 mi Calm Calm - N/A   Clear
7:55 AM 44.8 °F - 38.1 °F 77% 30.33 in 10.0 mi Calm Calm - N/A   Clear
8:15 AM 48.0 °F - 39.0 °F 71% 30.33 in 10.0 mi Calm Calm - N/A   Clear
8:35 AM 50.0 °F - 39.7 °F 68% 30.33 in 10.0 mi Calm Calm - N/A   Clear
8:55 AM 53.2 °F - 40.1 °F 61% 30.33 in 10.0 mi Calm Calm - N/A   Clear
9:15 AM 55.8 °F - 41.5 °F 59% 30.32 in 10.0 mi Calm Calm - N/A   Clear
9:35 AM 58.6 °F - 41.7 °F 53% 30.31 in 10.0 mi Calm Calm - N/A   Clear
9:55 AM 61.7 °F - 43.3 °F 51% 30.31 in 10.0 mi Calm Calm - N/A   Clear
10:15 AM 66.7 °F - 43.2 °F 42% 30.31 in 10.0 mi Calm Calm - N/A   Clear
10:35 AM 70.5 °F - 37.8 °F 30% 30.30 in 10.0 mi Calm Calm - N/A   Clear
10:55 AM 73.6 °F - 34.0 °F 23% 30.30 in 10.0 mi NW 4.6 mph - N/A   Clear
11:15 AM 75.0 °F - 32.0 °F 21% 30.30 in 10.0 mi West 8.1 mph - N/A   Clear
11:35 AM 75.6 °F - 31.3 °F 20% 30.29 in 10.0 mi West 10.4 mph 16.1 mph N/A   Scattered Clouds
11:55 AM 75.9 °F - 28.0 °F 17% 30.28 in 10.0 mi SW 13.8 mph 21.9 mph N/A   Scattered Clouds
12:15 PM 76.3 °F - 30.2 °F 18% 30.28 in 10.0 mi WSW 8.1 mph 23.0 mph N/A   Clear
12:40 PM 75.4 °F - 31.3 °F 20% 30.27 in 10.0 mi WSW 12.7 mph 23.0 mph N/A   Scattered Clouds
12:55 PM 76.5 °F - 30.4 °F 18% 30.27 in 10.0 mi SW 17.3 mph 24.2 mph N/A   Scattered Clouds
1:15 PM 77.0 °F - 32.9 °F 20% 30.26 in 10.0 mi West 21.9 mph 26.5 mph N/A   Clear
1:35 PM 77.0 °F - 30.6 °F 18% 30.25 in 10.0 mi West 16.1 mph 25.3 mph N/A   Clear
1:55 PM 76.8 °F - 28.2 °F 17% 30.25 in 10.0 mi West 16.1 mph 26.5 mph N/A   Clear
2:15 PM 77.5 °F - 29.3 °F 17% 30.25 in 10.0 mi WSW 16.1 mph 25.3 mph N/A   Clear
2:35 PM 77.7 °F - 28.6 °F 16% 30.24 in 10.0 mi West 19.6 mph 25.3 mph N/A   Clear
2:55 PM 77.9 °F - 26.6 °F 15% 30.23 in 10.0 mi West 17.3 mph 23.0 mph N/A   Clear
3:15 PM 78.1 °F - 26.8 °F 15% 30.23 in 10.0 mi WSW 15.0 mph 25.3 mph N/A   Clear
3:35 PM 77.9 °F - 26.8 °F 15% 30.22 in 10.0 mi West 15.0 mph - N/A   Clear
3:55 PM 78.3 °F - 25.9 °F 14% 30.21 in 10.0 mi WSW 13.8 mph 23.0 mph N/A   Clear
4:10 PM 77.9 °F - 26.8 °F 15% 30.21 in 10.0 mi WSW 18.4 mph 24.2 mph N/A   Clear
4:35 PM 77.9 °F - 26.8 °F 15% 30.21 in 10.0 mi WSW 12.7 mph 17.3 mph N/A   Clear
4:55 PM 77.4 °F - 25.5 °F 15% 30.21 in 10.0 mi West 13.8 mph 20.7 mph N/A   Clear
5:15 PM 77.0 °F - 26.4 °F 15% 30.21 in 10.0 mi WSW 13.8 mph 23.0 mph N/A   Clear
5:55 PM 75.4 °F - 28.6 °F 18% 30.21 in 10.0 mi WSW 8.1 mph - N/A   Clear
6:15 PM 71.2 °F - 27.7 °F 20% 30.21 in 10.0 mi WSW 10.4 mph - N/A   Clear
6:35 PM 70.3 °F - 28.6 °F 21% 30.21 in 10.0 mi SW 9.2 mph - N/A   Clear
6:55 PM 71.2 °F - 27.1 °F 19% 30.21 in 10.0 mi SW 8.1 mph - N/A   Clear
7:15 PM 65.8 °F - 29.1 °F 25% 30.21 in 10.0 mi SW 8.1 mph - N/A   Clear
7:35 PM 63.9 °F - 26.8 °F 25% 30.22 in 10.0 mi SW 10.4 mph - N/A   Clear
7:55 PM 66.0 °F - 25.0 °F 21% 30.22 in 10.0 mi SW 8.1 mph - N/A   Clear
8:15 PM 57.4 °F - 31.6 °F 38% 30.23 in 10.0 mi Calm Calm - N/A   Clear
8:35 PM 55.9 °F - 29.8 °F 37% 30.24 in 10.0 mi Calm Calm - N/A   Clear
8:55 PM 52.3 °F - 32.0 °F 46% 30.24 in 10.0 mi Calm Calm - N/A   Clear
9:15 PM 55.4 °F - 28.9 °F 36% 30.25 in 10.0 mi Calm Calm - N/A   Clear
9:55 PM 50.0 °F - 32.2 °F 50% 30.25 in 10.0 mi Calm Calm - N/A   Clear
10:15 PM 47.7 °F - 32.2 °F 55% 30.25 in 10.0 mi Calm Calm - N/A   Clear
10:35 PM 44.8 °F - 32.9 °F 63% 30.25 in 10.0 mi Calm Calm - N/A   Clear
10:55 PM 47.5 °F - 32.0 °F 55% 30.25 in 10.0 mi Calm Calm - N/A   Clear
11:15 PM 45.0 °F 43.5 °F 32.2 °F 61% 30.25 in 10.0 mi SE 3.5 mph - N/A   Clear
11:35 PM 46.8 °F - 32.0 °F 57% 30.25 in 10.0 mi SE 3.5 mph - N/A   Clear
11:55 PM 44.2 °F - 32.0 °F 62% 30.25 in 10.0 mi Calm Calm - N/A   Clear